CAPE
1 22 0 0 0 16 1833 3116 3097 2663 2383 2857 2610 2240 2073 2409 2229 2253 2092 1823 1715 1124 416 0 0 0 0 0 0 0 0 0
0 9 32 73 15 44 196 3018 3029 2985 2521 2498 2727 2606 2109 2031 1796 1809 2076 1922 1787 1293 795 13 0 0 0 0 0 0 0 0
0 12 120 44 18 219 287 2526 2893 3055 2936 2724 2634 2764 2455 2137 1688 1365 1590 1881 1715 1360 954 138 0 0 0 0 0 0 0 0
2 10 1 384 44 191 278 308 2958 2718 2672 2860 2922 3010 2834 2609 1712 1202 1240 1353 1376 1232 963 428 0 0 0 0 0 0 0 0
4 6 16 10 195 186 148 66 434 2771 2589 2551 2595 2512 2183 2144 1848 1205 1187 1216 1173 1034 879 584 0 0 0 0 0 0 0 0
3 63 10 13 109 215 87 37 133 28 2146 2358 2316 2351 2286 2093 1500 1126 1021 1141 1127 1045 746 648 82 0 0 0 0 0 0 0
3 6 10 1 99 99 158 160 19 25 215 2019 2241 1909 1945 1628 1282 911 827 765 875 943 832 723 144 0 0 0 0 0 0 0
0 0 0 0 0 72 188 308 89 24 233 1634 2254 2048 1527 1204 981 963 742 586 499 705 640 536 53 0 0 0 0 0 0 0
0 0 0 0 0 0 0 0 13 49 498 1174 1959 1617 1430 997 821 803 714 490 373 353 264 235 19 0 0 0 0 0 0 0
0 0 0 0 0 0 0 0 0 0 0 89 981 1446 1373 1251 853 841 696 520 265 217 89 128 12 0 0 0 0 0 0 0
0 0 0 0 0 0 0 0 0 0 0 0 1 4 1 571 999 888 737 565 274 45 30 48 19 0 0 0 0 0 0 0
0 0 0 0 0 0 0 0 0 0 0 0 0 0 0 0 113 436 801 848 524 20 7 0 0 0 0 0 0 0 0 0
0 0 0 0 0 0 0 0 0 0 0 0 0 0 0 0 0 0 0 5 648 315 0 0 0 0 0 0 0 0 0 0
0 0 0 0 0 0 0 0 0 0 0 0 0 1 2 0 0 0 0 0 0 0 38 1 0 0 0 0 0 0 0 0
0 0 0 0 0 0 0 0 0 0 0 0 0 0 0 2 0 0 0 0 0 0 0 6 2 0 0 0 0 0 0 0
0 0 0 0 0 0 0 0 0 0 0 0 0 0 0 4 1 0 0 0 0 0 0 0 9 0 0 0 0 0 0 0
0 0 0 0 0 0 0 0 0 0 0 0 0 0 0 0 1 0 0 0 0 1 1 0 0 0 0 0 0 0 0 0
0 0 0 0 0 0 0 0 0 0 0 0 0 0 0 0 0 0 0 0 0 0 0 0 0 0 0 1 1 2 0 0
0 0 0 0 0 0 0 0 0 0 0 0 0 0 0 0 0 0 0 0 0 0 0 0 0 0 1 2 1 0 0 0
CIN
-107 -131 0 0 0 -141 -45 -61 -98 -122 -84 -14 -16 -31 -36 -16 -16 -8 -7 -10 -10 -25 -148 0 0 0 0 0 0 0 0 0
-112 -187 -175 -201 -221 -159 -80 -54 -57 -78 -79 -24 -8 -11 -26 -35 -75 -39 -12 -3 -6 -7 -25 -307 0 0 0 0 0 0 0 0
-56 -204 -129 -255 -263 -172 -100 -47 -58 -44 -68 -70 -24 -11 -13 -39 -79 -126 -59 -8 -8 -12 -13 -246 0 0 0 0 0 0 0 0
-172 -97 -148 -93 -282 -228 -155 -77 -50 -62 -61 -39 -15 -4 -3 -2 -45 -130 -95 -55 -61 -68 -54 -117 0 0 0 0 0 0 0 0
-112 -136 -228 -313 -239 -279 -249 -230 -105 -39 -61 -33 -32 -21 -9 -5 -60 -193 -175 -130 -109 -108 -94 -99 0 0 0 0 0 0 0 0
-85 -115 -142 -240 -242 -280 -462 -438 -281 -235 -14 -29 -20 -14 -20 -10 -36 -99 -155 -119 -110 -95 -96 -91 -284 0 0 0 0 0 0 0
-288 -351 -311 -46 -319 -329 -308 -287 -374 -315 -160 -27 -34 -29 -6 -12 -34 -59 -79 -115 -101 -90 -102 -88 -220 0 0 0 0 0 0 0
0 0 0 0 0 -262 -256 -135 -237 -299 -131 -45 -52 -70 -48 -67 -81 -63 -46 -84 -110 -115 -133 -143 -250 0 0 0 0 0 0 0
0 0 0 0 0 0 0 0 -29 -161 -41 -58 -35 -53 -26 -55 -59 -74 -75 -117 -135 -112 -149 -171 -285 0 0 0 0 0 0 0
0 0 0 0 0 0 0 0 0 0 0 -205 -37 -22 -18 -13 -23 -9 -58 -76 -165 -191 -264 -167 -234 -1 0 0 0 0 0 0
0 0 0 0 0 0 0 0 0 0 0 0 -23 -129 -18 -29 -4 -3 -14 -58 -104 -257 -277 -242 -247 0 -1 0 0 0 0 0
0 0 0 0 0 0 0 0 0 0 0 0 0 0 0 0 -68 -25 -5 -3 -17 -225 -250 0 -26 0 0 0 0 0 0 0
0 0 0 0 0 0 0 0 0 0 0 0 0 0 0 0 0 0 0 -2 -20 -60 -16 0 0 0 0 0 0 0 0 0
0 0 0 0 0 0 0 0 0 0 0 0 0 -3 -4 0 0 0 0 0 0 0 -149 -135 0 -1 0 0 0 0 0 0
0 0 0 0 0 0 0 0 0 0 0 0 0 0 0 -4 0 0 0 0 0 0 0 -169 -260 0 0 0 0 0 0 0
0 0 0 0 0 0 0 0 0 0 0 0 0 0 0 -3 -4 0 0 0 0 0 0 0 -145 0 0 0 0 -1 0 0
0 0 0 0 0 0 0 0 0 0 0 0 0 0 0 0 -5 0 0 0 0 0 0 0 0 0 0 0 0 0 0 0
0 0 0 0 0 0 0 0 0 0 0 0 0 0 0 0 0 0 0 0 0 0 0 0 0 0 0 0 0 -358 0 0
0 0 0 0 0 0 0 0 0 0 0 0 0 0 0 0 0 0 0 0 0 0 0 0 0 0 0 0 0 0 0 0
Wind_Speed
14 14 15 18 19 14 16 20 24 22 16 12 12 11 9 7 10 12 17 13 14 12 10 10 12 9 8 8 9 7 7 7
17 13 14 9 13 14 15 21 21 18 15 15 13 14 13 13 10 16 15 15 15 15 10 11 12 12 10 9 6 10 7 7
17 16 12 15 14 9 11 20 21 19 15 15 12 13 13 13 11 14 14 16 16 14 13 13 15 11 11 11 12 8 7 10
18 16 16 6 15 13 9 14 23 20 19 13 12 11 11 12 12 13 14 17 16 17 16 12 15 13 13 10 12 14 11 10
18 15 17 12 7 3 5 2 4 21 21 17 20 16 13 11 12 13 15 20 20 17 17 14 17 11 14 15 10 10 13 13
16 4 18 15 9 7 7 7 6 6 17 19 16 15 12 9 8 13 15 15 19 20 18 17 14 13 14 15 17 14 13 13
15 14 12 10 9 5 2 2 6 7 8 14 18 20 14 11 11 9 10 10 12 16 19 19 15 17 14 16 16 19 16 13
12 11 10 11 10 7 5 4 7 8 9 6 13 17 18 18 15 13 12 11 10 17 18 18 16 17 16 16 15 17 17 16
13 11 10 9 9 12 11 11 11 8 10 6 11 16 11 11 13 11 12 12 13 15 16 17 19 19 17 15 13 14 17 15
13 12 12 13 11 10 9 11 12 13 12 9 5 8 13 11 14 12 11 13 12 16 17 18 18 18 19 17 14 17 17 19
10 9 9 9 8 7 9 10 11 12 12 11 7 2 4 5 13 14 14 14 15 17 16 18 17 17 19 19 16 16 18 15
12 11 11 9 6 6 6 8 9 11 12 11 11 11 5 5 5 4 11 14 16 17 19 20 19 19 18 18 18 18 19 18
6 9 7 7 9 10 7 4 4 5 6 10 10 8 10 7 5 5 5 8 9 16 19 21 21 20 20 20 20 18 20 21
1 3 2 4 6 8 9 9 8 5 5 4 8 8 5 6 6 6 6 6 5 6 15 20 20 20 20 21 21 20 20 21
3 1 4 4 4 4 4 5 7 9 7 4 4 7 10 6 4 4 4 5 6 5 6 14 18 20 20 20 20 20 19 19
5 2 3 2 3 4 5 3 5 2 7 8 6 6 5 6 5 3 4 5 6 7 6 4 13 16 14 19 19 20 19 18
1 3 5 2 5 5 3 4 6 4 6 6 6 7 5 7 4 4 3 4 6 6 5 5 5 8 16 21 19 17 18 19
2 3 6 6 5 7 6 4 6 6 9 10 7 5 7 8 6 4 4 4 4 6 7 5 5 6 9 14 19 17 16 17
1 2 6 7 6 6 5 6 8 7 7 11 5 5 8 5 7 5 4 4 4 5 6 5 6 5 6 11 12 15 9 10
Wind_Direction
241 214 213 199 229 206 179 174 166 171 173 185 186 196 199 192 180 186 183 192 188 184 174 168 165 171 175 181 178 165 164 167
223 240 198 198 209 217 198 177 174 164 173 184 188 187 191 196 191 192 189 189 189 188 183 161 169 180 183 190 163 169 176 169
228 208 202 196 200 209 214 179 178 176 174 183 190 188 190 192 188 199 196 192 192 184 190 173 173 181 179 195 177 180 176 177
233 223 196 164 197 188 207 213 180 182 184 180 183 184 186 186 175 181 193 195 190 189 190 176 175 182 184 195 190 186 181 181
243 226 185 155 138 80 137 191 197 186 184 186 187 189 191 193 181 178 187 190 194 190 192 187 177 178 188 187 200 194 182 184
202 196 179 170 121 96 39 1 336 251 203 188 192 188 189 162 167 178 182 195 195 194 194 194 179 185 186 190 187 193 196 189
73 63 69 84 76 72 89 308 294 290 253 213 187 196 185 178 169 172 189 188 198 198 196 197 191 188 187 186 193 189 194 199
73 80 84 71 60 40 2 299 271 259 268 248 187 181 186 188 180 178 183 189 198 201 198 195 189 191 190 190 190 192 199 202
64 59 74 75 61 42 15 351 340 240 244 282 189 189 192 198 197 190 189 193 194 197 202 200 196 189 192 194 196 197 201 202
69 51 53 56 36 41 20 356 347 3 10 11 317 213 195 200 201 205 196 190 192 194 193 199 197 197 195 194 199 202 202 206
67 63 51 58 60 46 20 11 5 358 359 7 35 46 22 275 228 208 203 195 189 190 192 197 199 197 197 195 200 204 206 209
30 32 29 41 48 69 50 24 10 8 357 353 356 354 20 349 330 296 235 207 197 192 195 194 197 197 197 199 199 201 203 208
360 11 21 5 6 5 18 40 28 21 0 345 339 343 335 327 330 357 350 6 239 199 195 195 200 200 199 203 204 201 204 208
291 3 1 340 343 344 346 352 360 6 357 350 331 330 320 325 346 351 343 338 315 304 204 197 198 202 203 204 206 205 205 207
224 207 309 337 354 343 332 333 340 336 326 319 332 316 314 296 293 301 327 334 309 306 322 222 203 198 202 205 208 208 208 210
175 259 274 230 279 308 292 345 302 317 323 317 307 286 304 293 266 297 297 314 305 292 281 302 223 203 208 206 206 209 212 210
7 259 276 295 298 276 313 347 302 313 268 276 288 292 288 309 276 284 272 295 303 293 284 269 256 234 214 199 204 209 213 213
114 314 309 318 289 285 307 323 308 301 312 294 276 308 304 301 277 257 294 299 310 301 284 266 261 262 237 218 214 210 213 215
250 264 278 268 261 260 243 238 261 276 275 287 291 280 274 266 292 270 274 265 270 292 297 299 282 254 250 240 201 227 229 225